User: anonymous   Login
Location: Unspecified
(0.0000°N, 0.0000°E)
Time: 21:59:01
(UTC+00:00)
Language:

RS-5 - Orbit

View from above orbital plane
View from above orbital plane
View from above satellite
View from above satellite

Ground track
Ground track

The orbit data is extracted from the following two-line orbital elements,

1 12999U 81120C   22228.72260025 -.00000111  00000-0 -13973-2 0  9992
2 12999  82.9592 126.8161 0014221 314.4096  72.6738 12.05269332788862
Epoch (UTC): 16 August 2022 17:20:32
Eccentricity: 0.0014221
inclination: 82.9592°
perigee height: 1646 km
apogee height: 1669 km
right ascension of ascending node: 126.8161°
argument of perigee: 314.4096°
revolutions per day: 12.05269332
mean anomaly at epoch: 72.6738°
orbit number at epoch: 78886

The dashed part of the orbit path shows where the satellite is in the earth's shadow,  

DLR